Location: Rock Island IL
(41.5000°N, 90.5500°W)
Time: 17:34:30
(UTC-06:00)

OTV 5 (USA 277) - Visible Passes

Search period start: 20 February 2018 00:00
Search period end: 02 March 2018 00:00
Orbit: 404 x 417 km, 43.0° (Epoch: 07 September)

Date Brightness Start Highest point End Pass type
(mag) Time Alt. Az. Time Alt. Az. Time Alt. Az.
20 Feb ? 05:56:34 10° SW 05:59:33 32° SSE 06:02:33 10° E visible
21 Feb ? 05:07:29 19° S 05:08:36 22° SSE 05:11:15 10° E visible
22 Feb ? 04:19:05 12° ESE 04:19:05 12° ESE 04:19:42 10° ESE visible
22 Feb ? 05:51:51 14° WSW 05:54:36 65° SSE 05:57:52 10° E visible
23 Feb ? 05:03:20 45° S 05:03:35 46° SSE 05:06:46 10° E visible
24 Feb ? 04:14:44 16° E 04:14:44 16° E 04:15:35 10° E visible
24 Feb ? 05:47:29 19° W 05:49:45 79° NNW 05:53:04 10° ENE visible
25 Feb ? 04:58:49 81° ESE 04:58:49 81° ESE 05:02:00 10° ENE visible
26 Feb ? 04:10:07 16° E 04:10:07 16° E 04:10:55 10° E visible
26 Feb ? 05:42:52 20° W 05:45:00 64° N 05:48:17 10° E visible
27 Feb ? 04:54:08 65° NNE 04:54:08 65° NNE 04:57:11 10° ENE visible
28 Feb ? 04:05:23 16° ENE 04:05:23 16° ENE 04:06:06 10° ENE visible
28 Feb ? 05:38:08 20° WNW 05:40:15 71° N 05:43:32 10° E visible
01 Mar ? 04:49:24 62° NNE 04:49:24 62° NNE 04:52:26 10° E visible
